This is the latest recevied weather packets stored in our database for station/object IZ1GCT. If no packets are shown the sender has not sent any weather packets the latest 1 day(s).
| Time | Temp. | Humidity | Pressure | Rain* | Wind** | Luminosity | Snow |
|---|---|---|---|---|---|---|---|
| 1777963248 | 9.44° C | 81% | 1016.3 hPa | 0 mm | 0.45 m/s, 180° | - | - |
| 1777962947 | 9.44° C | 81% | 1016.4 hPa | 0 mm | 1.34 m/s, 247° | - | - |
| 1777962649 | 9.44° C | 81% | 1016.3 hPa | 0 mm | 0.89 m/s, 216° | - | - |
| 1777962348 | 9.44° C | 82% | 1016.3 hPa | 0 mm | 0.89 m/s, 278° | - | - |
| 1777962048 | 9.44° C | 83% | 1016.3 hPa | 0 mm | 0.89 m/s, 270° | - | - |
| 1777961747 | 9.44° C | 82% | 1016.3 hPa | 0 mm | 1.34 m/s, 303° | - | - |
| 1777961449 | 9.44° C | 82% | 1016.4 hPa | 0 mm | 1.34 m/s, 282° | - | - |
| 1777961148 | 9.44° C | 82% | 1016.2 hPa | 0 mm | 1.34 m/s, 270° | - | - |
| 1777960848 | 8.89° C | 82% | 1016.4 hPa | 0 mm | 0.89 m/s, 225° | - | - |
| 1777960547 | 8.89° C | 82% | 1016.4 hPa | 0 mm | 1.34 m/s, 244° | - | - |
| 1777960247 | 8.89° C | 82% | 1016.5 hPa | 0 mm | 1.34 m/s, 270° | - | - |
| 1777959949 | 8.89° C | 82% | 1016.5 hPa | 0 mm | 1.34 m/s, 270° | - | - |
| 1777959648 | 8.89° C | 82% | 1016.4 hPa | 0 mm | 0.89 m/s, 296° | - | - |
| 1777959348 | 8.89° C | 83% | 1016.5 hPa | 0 mm | 2.24 m/s, 270° | - | - |
| 1777959047 | 8.89° C | 84% | 1016.5 hPa | 0.25 mm | 0.45 m/s, 270° | - | - |
| 1777958748 | 8.89° C | 85% | 1016.6 hPa | 0.25 mm | 0.89 m/s, 270° | - | - |
| 1777958448 | 8.89° C | 88% | 1016.6 hPa | 0.51 mm | 0.89 m/s, 237° | - | - |
| 1777958147 | 9.44° C | 90% | 1016.5 hPa | 1.02 mm | 0.89 m/s, 270° | - | - |
| 1777957849 | 9.44° C | 91% | 1016.6 hPa | 1.02 mm | 0.45 m/s, 241° | - | - |
| 1777957548 | 9.44° C | 92% | 1016.7 hPa | 1.02 mm | 0.45 m/s, 273° | - | - |
| 1777957247 | 9.44° C | 92% | 1016.7 hPa | 1.27 mm | 0.45 m/s, 270° | - | - |
| 1777956949 | 9.44° C | 92% | 1016.7 hPa | 1.52 mm | 0.45 m/s, 246° | - | - |
| 1777956649 | 9.44° C | 92% | 1016.7 hPa | 1.52 mm | 0 m/s | - | - |
| 1777956348 | 9.44° C | 92% | 1016.7 hPa | 1.52 mm | 0.45 m/s, 225° | - | - |
| 1777956048 | 9.44° C | 92% | 1016.7 hPa | 1.78 mm | 0.45 m/s, 201° | - | - |
* Rain latest hour (hover to see other rain measurements)
** Current wind speed in m/s (hover to see current wind gust speed)